Weather History for KCNM - July, 2013

Change the Weather History Date:

Friday, July 5, 2013

  Actual Average Record
Temperature  
Mean Temperature 84 °F -  
Max Temperature 100 °F 96 °F 106 °F (1971)
Min Temperature 69 °F 68 °F 61 °F (1958)
Cooling Degree Days 19    
Growing Degree Days 34 (Base 50)    
Moisture  
Dew Point 49 °F    
Average Humidity 31    
Maximum Humidity 53    
Minimum Humidity 15    
Precipitation  
Precipitation 0.00 in - - ()
Sea Level Pressure  
Sea Level Pressure 29.72 in    
Wind  
Wind Speed 9 mph (SSE)    
Max Wind Speed 17 mph    
Max Gust Speed 24 mph    
Visibility 10 miles    
Events      
Averages and records for this station are not official NWS values.
T = Trace of Precipitation, MM = Missing Value Source: NWS Daily Summary

Daily Weather History Graph

Daily Weather History Graph

Search for Another Location

Airport or City:

Trip Planner

Search our weather history database for the weather conditions in past years. The results will help you decide how hot, cold, wet, or windy it might be!

Date:

Astronomy

Jul. 05, 2013 Rise Set
Actual Time 5:55 AM MDT 8:07 PM MDT
Civil Twilight 5:27 AM MDT 8:35 PM MDT
Nautical Twilight 4:53 AM MDT 9:10 PM MDT
Astronomical Twilight 4:15 AM MDT 9:47 PM MDT
Moon 3:53 AM MDT (7/5) 6:07 PM MDT (7/5)
Length of Visible Light 15h 08m
Length of Day
14h 11m
Waning Crescent, 6% of the Moon is Illuminated
Jul 5
Waning Crescent
Jul 8
New
Jul 15
First Quarter
Jul 22
Full
Jul 29
Last Quarter

Hourly Weather History & Observations

Time (MDT) Temp. Heat Index Dew Point Humidity Pressure Visibility Wind Dir Wind Speed Gust Speed Precip Events Conditions
12:53 AM 73.0 °F - 48.0 °F 41% 29.77 in 10.0 mi South 5.8 mph - N/A   Clear
1:53 AM 71.1 °F - 48.9 °F 45% 29.77 in 10.0 mi South 6.9 mph - N/A   Clear
2:53 AM 70.0 °F - 48.9 °F 47% 29.76 in 10.0 mi South 5.8 mph - N/A   Clear
3:53 AM 73.0 °F - 50.0 °F 44% 29.75 in 10.0 mi SSE 9.2 mph - N/A   Clear
4:53 AM 72.0 °F - 51.1 °F 48% 29.76 in 10.0 mi SSE 9.2 mph - N/A   Clear
5:53 AM 71.1 °F - 51.1 °F 49% 29.77 in 10.0 mi SSE 6.9 mph - N/A   Clear
6:53 AM 69.1 °F - 51.1 °F 53% 29.79 in 10.0 mi South 5.8 mph - N/A   Clear
7:53 AM 73.9 °F - 50.0 °F 43% 29.80 in 10.0 mi SE 8.1 mph - N/A   Clear
8:53 AM 77.0 °F - 48.9 °F 37% 29.80 in 10.0 mi SSE 12.7 mph - N/A   Clear
9:53 AM 81.0 °F - 50.0 °F 34% 29.80 in 10.0 mi SE 8.1 mph - N/A   Clear
10:53 AM 86.0 °F - 50.0 °F 29% 29.78 in 10.0 mi SSE 12.7 mph - N/A   Clear
11:53 AM 90.0 °F - 48.9 °F 24% 29.76 in 10.0 mi SE 11.5 mph 17.3 mph N/A   Clear
12:53 PM 93.9 °F - 48.0 °F 21% 29.74 in 10.0 mi SSE 11.5 mph 19.6 mph N/A   Clear
1:53 PM 96.1 °F - 46.0 °F 18% 29.72 in 10.0 mi SE 10.4 mph 19.6 mph N/A   Clear
2:53 PM 97.0 °F - 45.0 °F 17% 29.68 in 10.0 mi South 8.1 mph 16.1 mph N/A   Clear
3:53 PM 99.0 °F - 45.0 °F 16% 29.65 in 10.0 mi Variable 5.8 mph 17.3 mph N/A   Clear
4:53 PM 99.0 °F - 44.1 °F 15% 29.62 in 10.0 mi SE 11.5 mph 21.9 mph N/A   Clear
5:53 PM 99.0 °F - 44.1 °F 15% 29.60 in 10.0 mi ESE 15.0 mph 23.0 mph N/A   Clear
6:53 PM 97.0 °F - 43.0 °F 16% 29.62 in 10.0 mi ESE 12.7 mph - N/A   Clear
7:53 PM 93.9 °F - 46.9 °F 20% 29.64 in 10.0 mi SE 12.7 mph - N/A   Clear
8:53 PM 91.0 °F - 48.9 °F 23% 29.66 in 10.0 mi SE 12.7 mph - N/A   Clear
9:53 PM 88.0 °F 85.7 °F 53.1 °F 30% 29.69 in 10.0 mi SE 13.8 mph 21.9 mph N/A   Clear
10:53 PM 84.9 °F 83.2 °F 53.1 °F 33% 29.71 in 10.0 mi SSE 16.1 mph 20.7 mph N/A   Clear
11:53 PM 82.9 °F - 52.0 °F 34% 29.73 in 10.0 mi SSE 17.3 mph 24.2 mph N/A   Clear